Wetterdaten: Woche 22.11.21 - 28.11.21 (KW47)
Datum Zeit Temp. 2m rel. Feuchte Luftdruck Regen Wind Richtung Sonne ET UV-Index Solar Taupunkt Ben
22.11.2021 00:00 3,6 C 91 % 1017,3 hPa 0,0 mm 0,0 km/h (0 Bft) N 0,00 h 0,0 mm 0,0 UV-I 0 W/m 2,2 C 0,0 km/h (0 Bft)
22.11.2021 01:00 3,3 C 91 % 1017,8 hPa 0,0 mm 0,0 km/h (0 Bft) N 0,00 h 0,0 mm 0,0 UV-I 0 W/m 2,0 C 0,0 km/h (0 Bft)
22.11.2021 02:00 3,5 C 92 % 1018,6 hPa 0,0 mm 0,0 km/h (0 Bft) N 0,00 h 0,0 mm 0,0 UV-I 0 W/m 2,3 C 0,2 km/h (0 Bft)
22.11.2021 03:00 4,7 C 92 % 1019,3 hPa 0,0 mm 0,8 km/h (0 Bft) N-NO 0,00 h 0,0 mm 0,0 UV-I 0 W/m 3,5 C 3,3 km/h (1 Bft)
22.11.2021 04:00 5,2 C 91 % 1020,1 hPa 0,0 mm 0,6 km/h (0 Bft) NO 0,00 h 0,0 mm 0,0 UV-I 0 W/m 3,7 C 3,5 km/h (1 Bft)
22.11.2021 05:00 5,5 C 89 % 1021,1 hPa 0,0 mm 0,7 km/h (0 Bft) NO 0,00 h 0,0 mm 0,0 UV-I 0 W/m 3,8 C 3,3 km/h (1 Bft)
22.11.2021 06:00 5,8 C 88 % 1021,8 hPa 0,0 mm 0,4 km/h (0 Bft) NO 0,00 h 0,0 mm 0,0 UV-I 0 W/m 3,9 C 2,4 km/h (1 Bft)
22.11.2021 07:00 5,5 C 86 % 1022,7 hPa 0,0 mm 0,0 km/h (0 Bft) N 0,00 h 0,0 mm 0,0 UV-I 0 W/m 3,4 C 0,0 km/h (0 Bft)
22.11.2021 08:00 5,2 C 85 % 1023,7 hPa 0,0 mm 0,3 km/h (0 Bft) O 0,42 h 0,0 mm 1,0 UV-I 38 W/m 2,9 C 1,8 km/h (1 Bft)
22.11.2021 09:00 5,7 C 84 % 1024,8 hPa 0,0 mm 2,6 km/h (1 Bft) O 1,00 h 0,0 mm 1,8 UV-I 166 W/m 3,2 C 5,4 km/h (1 Bft)
22.11.2021 10:00 5,7 C 83 % 1025,8 hPa 0,0 mm 1,8 km/h (1 Bft) O 0,17 h 0,1 mm 1,8 UV-I 117 W/m 3,0 C 4,4 km/h (1 Bft)
22.11.2021 11:00 5,9 C 81 % 1026,2 hPa 0,0 mm 2,5 km/h (1 Bft) O 0,50 h 0,1 mm 2,3 UV-I 204 W/m 2,8 C 5,0 km/h (1 Bft)
22.11.2021 12:00 6,7 C 75 % 1026,3 hPa 0,0 mm 2,3 km/h (1 Bft) O 1,00 h 0,1 mm 2,8 UV-I 370 W/m 2,6 C 5,4 km/h (1 Bft)
22.11.2021 13:00 7,3 C 71 % 1026,4 hPa 0,0 mm 1,8 km/h (1 Bft) O-SO 0,92 h 0,2 mm 2,8 UV-I 360 W/m 2,3 C 4,4 km/h (1 Bft)
22.11.2021 14:00 7,5 C 68 % 1026,6 hPa 0,0 mm 2,1 km/h (1 Bft) O-SO 1,00 h 0,1 mm 2,4 UV-I 267 W/m 2,0 C 4,4 km/h (1 Bft)
22.11.2021 15:00 6,9 C 70 % 1027,0 hPa 0,0 mm 2,9 km/h (1 Bft) O 0,83 h 0,1 mm 1,9 UV-I 132 W/m 1,7 C 5,2 km/h (1 Bft)
22.11.2021 16:00 6,0 C 72 % 1027,5 hPa 0,0 mm 1,1 km/h (0 Bft) O 0,42 h 0,1 mm 0,0 UV-I 18 W/m 1,4 C 2,8 km/h (1 Bft)
22.11.2021 17:00 5,1 C 76 % 1028,1 hPa 0,0 mm 0,9 km/h (0 Bft) O 0,00 h 0,0 mm 0,0 UV-I 0 W/m 1,2 C 2,8 km/h (1 Bft)
22.11.2021 18:00 4,6 C 78 % 1028,6 hPa 0,0 mm 0,6 km/h (0 Bft) O 0,00 h 0,0 mm 0,0 UV-I 0 W/m 1,1 C 1,7 km/h (1 Bft)
22.11.2021 19:00 3,9 C 81 % 1029,2 hPa 0,0 mm 0,1 km/h (0 Bft) N 0,00 h 0,0 mm 0,0 UV-I 0 W/m 1,0 C 1,1 km/h (1 Bft)
22.11.2021 20:00 2,4 C 84 % 1029,6 hPa 0,0 mm 0,0 km/h (0 Bft) N 0,00 h 0,0 mm 0,0 UV-I 0 W/m 0,0 C 0,0 km/h (0 Bft)
22.11.2021 21:00 1,5 C 87 % 1029,9 hPa 0,0 mm 0,0 km/h (0 Bft) N 0,00 h 0,0 mm 0,0 UV-I 0 W/m -0,4 C 0,0 km/h (0 Bft)
22.11.2021 22:00 1,2 C 88 % 1030,2 hPa 0,0 mm 0,2 km/h (0 Bft) N 0,00 h 0,0 mm 0,0 UV-I 0 W/m -0,5 C 1,1 km/h (1 Bft)
22.11.2021 23:00 0,9 C 89 % 1030,4 hPa 0,0 mm 0,0 km/h (0 Bft) N 0,00 h 0,0 mm 0,0 UV-I 0 W/m -0,7 C 0,4 km/h (0 Bft)
23.11.2021 00:00 0,3 C 89 % 1030,6 hPa 0,0 mm 0,0 km/h (0 Bft) N 0,00 h 0,0 mm 0,0 UV-I 0 W/m -1,3 C 0,0 km/h (0 Bft)
23.11.2021 01:00 0,0 C 90 % 1030,6 hPa 0,0 mm 0,0 km/h (0 Bft) N 0,00 h 0,0 mm 0,0 UV-I 0 W/m -1,5 C 0,2 km/h (0 Bft)
23.11.2021 02:00 -0,2 C 90 % 1030,5 hPa 0,0 mm 0,2 km/h (0 Bft) O-SO 0,00 h 0,0 mm 0,0 UV-I 0 W/m -1,7 C 0,9 km/h (0 Bft)
23.11.2021 03:00 -0,0 C 91 % 1030,5 hPa 0,0 mm 0,2 km/h (0 Bft) N 0,00 h 0,0 mm 0,0 UV-I 0 W/m -1,3 C 1,8 km/h (1 Bft)
23.11.2021 04:00 -0,3 C 90 % 1030,5 hPa 0,0 mm 0,0 km/h (0 Bft) N 0,00 h 0,0 mm 0,0 UV-I 0 W/m -1,8 C 0,6 km/h (0 Bft)
23.11.2021 05:00 -0,5 C 91 % 1030,5 hPa 0,0 mm 0,1 km/h (0 Bft) N 0,00 h 0,0 mm 0,0 UV-I 0 W/m -1,8 C 0,7 km/h (0 Bft)
23.11.2021 06:00 -0,3 C 91 % 1030,4 hPa 0,0 mm 0,8 km/h (0 Bft) O-SO 0,00 h 0,0 mm 0,0 UV-I 0 W/m -1,6 C 3,3 km/h (1 Bft)
23.11.2021 07:00 0,3 C 91 % 1030,5 hPa 0,0 mm 1,2 km/h (1 Bft) SO 0,00 h 0,0 mm 0,0 UV-I 0 W/m -1,0 C 5,0 km/h (1 Bft)
23.11.2021 08:00 0,8 C 91 % 1030,9 hPa 0,0 mm 1,3 km/h (1 Bft) SO 0,00 h 0,0 mm 0,0 UV-I 15 W/m -0,5 C 5,2 km/h (1 Bft)
23.11.2021 09:00 1,5 C 91 % 1031,2 hPa 0,0 mm 1,2 km/h (1 Bft) SO 0,08 h 0,0 mm 0,8 UV-I 59 W/m 0,2 C 4,6 km/h (1 Bft)
23.11.2021 10:00 2,2 C 90 % 1031,3 hPa 0,0 mm 1,9 km/h (1 Bft) S-SO 0,00 h 0,0 mm 1,0 UV-I 77 W/m 0,8 C 6,3 km/h (2 Bft)
23.11.2021 11:00 3,1 C 89 % 1031,3 hPa 0,0 mm 1,8 km/h (1 Bft) S 0,00 h 0,0 mm 1,6 UV-I 101 W/m 1,4 C 5,0 km/h (1 Bft)
23.11.2021 12:00 4,0 C 89 % 1030,9 hPa 0,0 mm 0,3 km/h (0 Bft) S 0,00 h 0,0 mm 1,8 UV-I 115 W/m 2,3 C 1,3 km/h (1 Bft)
23.11.2021 13:00 4,5 C 90 % 1030,4 hPa 0,0 mm 0,6 km/h (0 Bft) S 0,00 h 0,0 mm 1,6 UV-I 95 W/m 3,0 C 2,2 km/h (1 Bft)
23.11.2021 14:00 5,1 C 90 % 1030,1 hPa 0,0 mm 1,1 km/h (1 Bft) O-SO 0,00 h 0,0 mm 1,0 UV-I 61 W/m 3,6 C 3,1 km/h (1 Bft)
23.11.2021 15:00 5,3 C 91 % 1030,0 hPa 0,0 mm 0,8 km/h (0 Bft) O-SO 0,00 h 0,0 mm 0,0 UV-I 19 W/m 4,0 C 2,6 km/h (1 Bft)
23.11.2021 16:00 5,3 C 91 % 1030,0 hPa 0,0 mm 0,2 km/h (0 Bft) O-SO 0,00 h 0,0 mm 0,0 UV-I 8 W/m 4,0 C 0,7 km/h (0 Bft)
23.11.2021 17:00 5,3 C 91 % 1029,9 hPa 0,0 mm 1,4 km/h (1 Bft) S-SO 0,00 h 0,0 mm 0,0 UV-I 0 W/m 4,0 C 4,6 km/h (1 Bft)
23.11.2021 18:00 5,4 C 93 % 1029,8 hPa 0,0 mm 1,1 km/h (1 Bft) S 0,00 h 0,0 mm 0,0 UV-I 0 W/m 4,3 C 4,4 km/h (1 Bft)
23.11.2021 19:00 5,4 C 93 % 1029,6 hPa 0,0 mm 0,9 km/h (0 Bft) S 0,00 h 0,0 mm 0,0 UV-I 0 W/m 4,4 C 3,9 km/h (1 Bft)
23.11.2021 20:00 5,4 C 93 % 1029,5 hPa 0,0 mm 0,7 km/h (0 Bft) S 0,00 h 0,0 mm 0,0 UV-I 0 W/m 4,4 C 3,9 km/h (1 Bft)
23.11.2021 21:00 5,4 C 93 % 1029,5 hPa 0,0 mm 0,6 km/h (0 Bft) S 0,00 h 0,0 mm 0,0 UV-I 0 W/m 4,3 C 2,8 km/h (1 Bft)
23.11.2021 22:00 5,2 C 93 % 1029,2 hPa 0,0 mm 1,4 km/h (1 Bft) S 0,00 h 0,0 mm 0,0 UV-I 0 W/m 4,2 C 5,7 km/h (1 Bft)
23.11.2021 23:00 5,2 C 92 % 1028,8 hPa 0,0 mm 0,3 km/h (0 Bft) N 0,00 h 0,0 mm 0,0 UV-I 0 W/m 4,1 C 2,0 km/h (1 Bft)
24.11.2021 00:00 5,2 C 91 % 1028,6 hPa 0,0 mm 0,0 km/h (0 Bft) N 0,00 h 0,0 mm 0,0 UV-I 0 W/m 3,9 C 0,2 km/h (0 Bft)
24.11.2021 01:00 5,2 C 91 % 1028,1 hPa 0,0 mm 0,0 km/h (0 Bft) N 0,00 h 0,0 mm 0,0 UV-I 0 W/m 3,9 C 0,0 km/h (0 Bft)
24.11.2021 02:00 5,2 C 91 % 1027,7 hPa 0,0 mm 0,0 km/h (0 Bft) N 0,00 h 0,0 mm 0,0 UV-I 0 W/m 3,9 C 0,0 km/h (0 Bft)
24.11.2021 03:00 5,2 C 91 % 1027,2 hPa 0,0 mm 0,0 km/h (0 Bft) N 0,00 h 0,0 mm 0,0 UV-I 0 W/m 3,9 C 0,0 km/h (0 Bft)
24.11.2021 04:00 5,2 C 91 % 1026,5 hPa 0,0 mm 0,3 km/h (0 Bft) S 0,00 h 0,0 mm 0,0 UV-I 0 W/m 3,9 C 2,0 km/h (1 Bft)
24.11.2021 05:00 5,2 C 91 % 1025,7 hPa 0,0 mm 0,5 km/h (0 Bft) S 0,00 h 0,0 mm 0,0 UV-I 0 W/m 3,8 C 2,9 km/h (1 Bft)
24.11.2021 06:00 5,2 C 91 % 1025,5 hPa 0,0 mm 0,1 km/h (0 Bft) S 0,00 h 0,0 mm 0,0 UV-I 0 W/m 3,8 C 0,7 km/h (0 Bft)
24.11.2021 07:00 5,2 C 91 % 1025,3 hPa 0,0 mm 0,4 km/h (0 Bft) S 0,00 h 0,0 mm 0,0 UV-I 0 W/m 3,9 C 2,6 km/h (1 Bft)
24.11.2021 08:00 5,2 C 90 % 1025,2 hPa 0,0 mm 0,4 km/h (0 Bft) N 0,00 h 0,0 mm 0,0 UV-I 13 W/m 3,8 C 2,9 km/h (1 Bft)
24.11.2021 09:00 5,5 C 90 % 1024,7 hPa 0,0 mm 0,3 km/h (0 Bft) N 0,00 h 0,0 mm 0,3 UV-I 49 W/m 3,9 C 1,8 km/h (1 Bft)
24.11.2021 10:00 6,0 C 90 % 1024,1 hPa 0,0 mm 0,6 km/h (0 Bft) S 0,00 h 0,0 mm 2,3 UV-I 84 W/m 4,4 C 3,1 km/h (1 Bft)
24.11.2021 11:00 6,4 C 89 % 1023,5 hPa 0,0 mm 1,4 km/h (1 Bft) S 0,00 h 0,0 mm 2,7 UV-I 121 W/m 4,7 C 4,8 km/h (1 Bft)
24.11.2021 12:00 7,2 C 84 % 1022,4 hPa 0,0 mm 2,8 km/h (1 Bft) O 0,67 h 0,1 mm 3,2 UV-I 182 W/m 4,7 C 8,3 km/h (2 Bft)
24.11.2021 13:00 7,7 C 76 % 1021,2 hPa 0,0 mm 4,7 km/h (1 Bft) S-SO 0,08 h 0,1 mm 2,7 UV-I 107 W/m 3,7 C 11,6 km/h (2 Bft)
24.11.2021 14:00 7,3 C 71 % 1020,4 hPa 0,0 mm 5,6 km/h (1 Bft) S-SO 0,00 h 0,1 mm 2,6 UV-I 79 W/m 2,5 C 14,4 km/h (3 Bft)
24.11.2021 15:00 7,1 C 72 % 1019,6 hPa 0,0 mm 3,1 km/h (1 Bft) S 0,00 h 0,1 mm 0,0 UV-I 39 W/m 2,5 C 9,1 km/h (2 Bft)
24.11.2021 16:00 6,8 C 73 % 1018,6 hPa 0,0 mm 2,3 km/h (1 Bft) S-SO 0,33 h 0,0 mm 0,0 UV-I 20 W/m 2,2 C 7,6 km/h (2 Bft)
24.11.2021 17:00 5,7 C 77 % 1017,9 hPa 0,0 mm 0,8 km/h (0 Bft) S-SO 0,00 h 0,0 mm 0,0 UV-I 0 W/m 2,0 C 3,3 km/h (1 Bft)
24.11.2021 18:00 4,6 C 81 % 1017,3 hPa 0,0 mm 0,6 km/h (0 Bft) S-SO 0,00 h 0,0 mm 0,0 UV-I 0 W/m 1,6 C 2,8 km/h (1 Bft)
24.11.2021 19:00 3,1 C 84 % 1017,0 hPa 0,0 mm 0,0 km/h (0 Bft) N 0,00 h 0,0 mm 0,0 UV-I 0 W/m 0,6 C 0,0 km/h (0 Bft)
24.11.2021 20:00 2,1 C 86 % 1016,3 hPa 0,0 mm 0,0 km/h (0 Bft) N 0,00 h 0,0 mm 0,0 UV-I 0 W/m -0,1 C 0,0 km/h (0 Bft)
24.11.2021 21:00 1,4 C 88 % 1015,9 hPa 0,0 mm 0,1 km/h (0 Bft) N 0,00 h 0,0 mm 0,0 UV-I 0 W/m -0,4 C 0,6 km/h (0 Bft)
24.11.2021 22:00 0,8 C 89 % 1015,4 hPa 0,0 mm 0,4 km/h (0 Bft) S-SO 0,00 h 0,0 mm 0,0 UV-I 0 W/m -0,9 C 0,9 km/h (0 Bft)
24.11.2021 23:00 0,1 C 89 % 1014,9 hPa 0,0 mm 0,0 km/h (0 Bft) N 0,00 h 0,0 mm 0,0 UV-I 0 W/m -1,4 C 0,0 km/h (0 Bft)
25.11.2021 00:00 0,2 C 90 % 1014,4 hPa 0,0 mm 0,2 km/h (0 Bft) N 0,00 h 0,0 mm 0,0 UV-I 0 W/m -1,2 C 1,1 km/h (1 Bft)
25.11.2021 01:00 1,0 C 91 % 1013,9 hPa 0,0 mm 0,0 km/h (0 Bft) N 0,00 h 0,0 mm 0,0 UV-I 0 W/m -0,3 C 0,6 km/h (0 Bft)
25.11.2021 02:00 1,3 C 91 % 1013,4 hPa 0,0 mm 0,1 km/h (0 Bft) N 0,00 h 0,0 mm 0,0 UV-I 0 W/m -0,0 C 0,6 km/h (0 Bft)
25.11.2021 03:00 1,3 C 91 % 1013,2 hPa 0,0 mm 0,0 km/h (0 Bft) N 0,00 h 0,0 mm 0,0 UV-I 0 W/m -0,1 C 0,0 km/h (0 Bft)
25.11.2021 04:00 1,8 C 91 % 1012,7 hPa 0,0 mm 0,5 km/h (0 Bft) S-SO 0,00 h 0,0 mm 0,0 UV-I 0 W/m 0,4 C 2,4 km/h (1 Bft)
25.11.2021 05:00 1,8 C 91 % 1012,4 hPa 0,0 mm 0,3 km/h (0 Bft) S-SO 0,00 h 0,0 mm 0,0 UV-I 0 W/m 0,5 C 2,4 km/h (1 Bft)
25.11.2021 06:00 2,0 C 91 % 1012,3 hPa 0,0 mm 1,1 km/h (1 Bft) S-SO 0,00 h 0,0 mm 0,0 UV-I 0 W/m 0,6 C 3,7 km/h (1 Bft)
25.11.2021 07:00 1,9 C 90 % 1012,1 hPa 0,0 mm 1,4 km/h (1 Bft) S-SO 0,00 h 0,0 mm 0,0 UV-I 0 W/m 0,5 C 4,2 km/h (1 Bft)
25.11.2021 08:00 1,6 C 89 % 1012,2 hPa 0,0 mm 1,0 km/h (0 Bft) S-SO 0,17 h 0,0 mm 0,0 UV-I 24 W/m 0,1 C 3,1 km/h (1 Bft)
25.11.2021 09:00 1,3 C 90 % 1012,3 hPa 0,0 mm 0,3 km/h (0 Bft) O 0,67 h 0,0 mm 1,1 UV-I 99 W/m -0,2 C 1,1 km/h (1 Bft)
25.11.2021 10:00 2,2 C 90 % 1012,3 hPa 0,0 mm 3,4 km/h (1 Bft) O 1,00 h 0,0 mm 1,6 UV-I 248 W/m 0,7 C 8,2 km/h (2 Bft)
25.11.2021 11:00 3,8 C 87 % 1012,4 hPa 0,0 mm 4,3 km/h (1 Bft) O 0,00 h 0,1 mm 1,9 UV-I 125 W/m 1,8 C 8,7 km/h (2 Bft)
25.11.2021 12:00 4,4 C 84 % 1012,0 hPa 0,0 mm 3,3 km/h (1 Bft) O 0,00 h 0,1 mm 1,9 UV-I 88 W/m 2,0 C 7,6 km/h (2 Bft)
25.11.2021 13:00 5,3 C 81 % 1011,2 hPa 0,0 mm 2,9 km/h (1 Bft) O 0,50 h 0,0 mm 2,4 UV-I 161 W/m 2,3 C 7,2 km/h (2 Bft)
25.11.2021 14:00 5,6 C 82 % 1010,9 hPa 0,0 mm 2,0 km/h (1 Bft) O 0,00 h 0,1 mm 2,1 UV-I 67 W/m 2,8 C 5,7 km/h (1 Bft)
25.11.2021 15:00 4,9 C 86 % 1010,9 hPa 0,0 mm 1,2 km/h (1 Bft) NW 0,00 h 0,0 mm 0,0 UV-I 15 W/m 2,9 C 4,4 km/h (1 Bft)
25.11.2021 16:00 4,6 C 88 % 1010,7 hPa 0,0 mm 1,6 km/h (1 Bft) S-SW 0,08 h 0,0 mm 0,0 UV-I 12 W/m 2,8 C 6,1 km/h (2 Bft)
25.11.2021 17:00 4,5 C 88 % 1010,8 hPa 0,0 mm 0,9 km/h (0 Bft) S-SW 0,00 h 0,0 mm 0,0 UV-I 0 W/m 2,7 C 3,7 km/h (1 Bft)
25.11.2021 18:00 4,4 C 89 % 1010,7 hPa 0,0 mm 0,0 km/h (0 Bft) S-SW 0,00 h 0,0 mm 0,0 UV-I 0 W/m 2,7 C 0,6 km/h (0 Bft)
25.11.2021 19:00 4,0 C 89 % 1010,7 hPa 0,0 mm 0,4 km/h (0 Bft) N 0,00 h 0,0 mm 0,0 UV-I 0 W/m 2,5 C 1,8 km/h (1 Bft)
25.11.2021 20:00 4,4 C 91 % 1010,6 hPa 0,0 mm 2,4 km/h (1 Bft) W-NW 0,00 h 0,0 mm 0,0 UV-I 0 W/m 3,0 C 7,2 km/h (2 Bft)
25.11.2021 21:00 4,6 C 91 % 1010,4 hPa 0,0 mm 1,3 km/h (1 Bft) NW 0,00 h 0,0 mm 0,0 UV-I 0 W/m 3,3 C 5,4 km/h (1 Bft)
25.11.2021 22:00 4,6 C 91 % 1010,0 hPa 0,0 mm 1,4 km/h (1 Bft) NW 0,00 h 0,0 mm 0,0 UV-I 0 W/m 3,2 C 4,1 km/h (1 Bft)
25.11.2021 23:00 4,6 C 91 % 1009,2 hPa 0,0 mm 0,4 km/h (0 Bft) N 0,00 h 0,0 mm 0,0 UV-I 0 W/m 3,2 C 2,4 km/h (1 Bft)
26.11.2021 00:00 4,6 C 91 % 1008,5 hPa 0,0 mm 1,4 km/h (1 Bft) W 0,00 h 0,0 mm 0,0 UV-I 0 W/m 3,3 C 4,8 km/h (1 Bft)
26.11.2021 01:00 4,5 C 91 % 1007,6 hPa 0,0 mm 2,1 km/h (1 Bft) W-SW 0,00 h 0,0 mm 0,0 UV-I 0 W/m 3,2 C 7,2 km/h (2 Bft)
26.11.2021 02:00 4,4 C 91 % 1006,7 hPa 0,0 mm 1,0 km/h (0 Bft) W-SW 0,00 h 0,0 mm 0,0 UV-I 0 W/m 3,1 C 5,0 km/h (1 Bft)
26.11.2021 03:00 4,3 C 90 % 1005,6 hPa 0,0 mm 4,4 km/h (1 Bft) W-SW 0,00 h 0,0 mm 0,0 UV-I 0 W/m 2,9 C 11,5 km/h (2 Bft)
26.11.2021 04:00 4,5 C 90 % 1004,6 hPa 0,0 mm 6,2 km/h (2 Bft) W 0,00 h 0,0 mm 0,0 UV-I 0 W/m 3,0 C 14,3 km/h (3 Bft)
26.11.2021 05:00 4,5 C 90 % 1003,6 hPa 1,0 mm 7,3 km/h (2 Bft) W 0,00 h 0,0 mm 0,0 UV-I 0 W/m 3,0 C 15,9 km/h (3 Bft)
26.11.2021 06:00 4,4 C 91 % 1002,6 hPa 0,0 mm 4,9 km/h (1 Bft) W 0,00 h 0,0 mm 0,0 UV-I 0 W/m 3,1 C 10,9 km/h (2 Bft)
26.11.2021 07:00 4,4 C 91 % 1001,9 hPa 0,5 mm 7,6 km/h (2 Bft) W-NW 0,00 h 0,0 mm 0,0 UV-I 0 W/m 3,1 C 17,6 km/h (3 Bft)
26.11.2021 08:00 4,1 C 91 % 1001,2 hPa 2,0 mm 8,2 km/h (2 Bft) W 0,00 h 0,0 mm 0,0 UV-I 10 W/m 2,7 C 19,4 km/h (3 Bft)
26.11.2021 09:00 4,1 C 91 % 1000,3 hPa 0,0 mm 1,6 km/h (1 Bft) W-NW 0,00 h 0,0 mm 0,0 UV-I 31 W/m 2,7 C 11,3 km/h (2 Bft)
26.11.2021 10:00 4,4 C 90 % 999,5 hPa 0,0 mm 5,8 km/h (2 Bft) W-NW 0,00 h 0,0 mm 1,7 UV-I 71 W/m 2,9 C 17,6 km/h (3 Bft)
26.11.2021 11:00 4,5 C 87 % 998,3 hPa 0,0 mm 9,0 km/h (2 Bft) W-NW 0,00 h 0,0 mm 1,9 UV-I 78 W/m 2,6 C 21,3 km/h (4 Bft)
26.11.2021 12:00 4,5 C 80 % 996,8 hPa 0,0 mm 7,8 km/h (2 Bft) W-SW 0,00 h 0,0 mm 2,0 UV-I 102 W/m 1,4 C 17,8 km/h (3 Bft)
26.11.2021 13:00 5,0 C 73 % 995,1 hPa 0,0 mm 7,4 km/h (2 Bft) S-SW 0,00 h 0,1 mm 2,2 UV-I 106 W/m 0,5 C 15,9 km/h (3 Bft)
26.11.2021 14:00 5,4 C 74 % 993,6 hPa 0,0 mm 9,3 km/h (2 Bft) S-SW 0,00 h 0,1 mm 2,1 UV-I 63 W/m 1,1 C 20,2 km/h (4 Bft)
26.11.2021 15:00 5,4 C 73 % 992,3 hPa 0,0 mm 9,4 km/h (2 Bft) S 0,00 h 0,0 mm 0,0 UV-I 25 W/m 0,9 C 21,5 km/h (4 Bft)
26.11.2021 16:00 5,3 C 75 % 990,7 hPa 0,0 mm 12,6 km/h (3 Bft) S-SW 0,17 h 0,0 mm 0,0 UV-I 16 W/m 1,1 C 26,8 km/h (4 Bft)
26.11.2021 17:00 5,1 C 77 % 989,6 hPa 0,0 mm 11,5 km/h (2 Bft) S-SW 0,00 h 0,0 mm 0,0 UV-I 0 W/m 1,5 C 25,9 km/h (4 Bft)
26.11.2021 18:00 5,1 C 78 % 988,4 hPa 0,0 mm 10,9 km/h (2 Bft) S 0,00 h 0,0 mm 0,0 UV-I 0 W/m 1,7 C 24,3 km/h (4 Bft)
26.11.2021 19:00 4,9 C 83 % 987,6 hPa 0,5 mm 9,9 km/h (2 Bft) S-SW 0,00 h 0,0 mm 0,0 UV-I 0 W/m 2,2 C 23,9 km/h (4 Bft)
26.11.2021 20:00 4,6 C 84 % 986,7 hPa 0,0 mm 9,4 km/h (2 Bft) S-SW 0,00 h 0,0 mm 0,0 UV-I 0 W/m 2,2 C 20,9 km/h (4 Bft)
26.11.2021 21:00 4,8 C 82 % 986,1 hPa 0,0 mm 7,9 km/h (2 Bft) S-SO 0,00 h 0,0 mm 0,0 UV-I 0 W/m 2,0 C 18,3 km/h (3 Bft)
26.11.2021 22:00 4,6 C 82 % 985,3 hPa 0,0 mm 8,5 km/h (2 Bft) S 0,00 h 0,0 mm 0,0 UV-I 0 W/m 1,8 C 18,9 km/h (3 Bft)
26.11.2021 23:00 4,4 C 82 % 985,0 hPa 0,0 mm 9,6 km/h (2 Bft) S 0,00 h 0,0 mm 0,0 UV-I 0 W/m 1,6 C 19,4 km/h (3 Bft)
27.11.2021 00:00 4,2 C 84 % 984,8 hPa 0,0 mm 8,5 km/h (2 Bft) S 0,00 h 0,0 mm 0,0 UV-I 0 W/m 1,7 C 16,8 km/h (3 Bft)
27.11.2021 01:00 4,3 C 85 % 984,3 hPa 0,0 mm 9,0 km/h (2 Bft) S 0,00 h 0,0 mm 0,0 UV-I 0 W/m 1,9 C 18,5 km/h (3 Bft)
27.11.2021 02:00 4,4 C 84 % 984,2 hPa 0,0 mm 8,3 km/h (2 Bft) S-SW 0,00 h 0,0 mm 0,0 UV-I 0 W/m 1,8 C 17,4 km/h (3 Bft)
27.11.2021 03:00 4,3 C 85 % 984,4 hPa 0,0 mm 6,5 km/h (2 Bft) S 0,00 h 0,0 mm 0,0 UV-I 0 W/m 2,0 C 14,0 km/h (3 Bft)
27.11.2021 04:00 3,8 C 86 % 984,8 hPa 0,0 mm 7,9 km/h (2 Bft) W 0,00 h 0,0 mm 0,0 UV-I 0 W/m 1,7 C 17,3 km/h (3 Bft)
27.11.2021 05:00 3,6 C 87 % 985,4 hPa 0,0 mm 8,7 km/h (2 Bft) NW 0,00 h 0,0 mm 0,0 UV-I 0 W/m 1,7 C 17,0 km/h (3 Bft)
27.11.2021 06:00 3,4 C 87 % 986,2 hPa 0,0 mm 4,1 km/h (1 Bft) W-NW 0,00 h 0,0 mm 0,0 UV-I 0 W/m 1,4 C 9,1 km/h (2 Bft)
27.11.2021 07:00 3,2 C 87 % 986,7 hPa 0,0 mm 1,0 km/h (0 Bft) SW 0,00 h 0,0 mm 0,0 UV-I 0 W/m 1,3 C 4,1 km/h (1 Bft)
27.11.2021 08:00 2,9 C 88 % 987,8 hPa 0,0 mm 0,2 km/h (0 Bft) S-SW 0,00 h 0,0 mm 0,0 UV-I 15 W/m 1,2 C 0,7 km/h (0 Bft)
27.11.2021 09:00 2,7 C 89 % 988,6 hPa 0,0 mm 0,3 km/h (0 Bft) O 0,82 h 0,0 mm 1,3 UV-I 113 W/m 1,0 C 1,3 km/h (1 Bft)
27.11.2021 10:00 3,2 C 88 % 989,4 hPa 0,0 mm 1,2 km/h (1 Bft) O 0,08 h 0,0 mm 1,9 UV-I 106 W/m 1,3 C 5,0 km/h (1 Bft)
27.11.2021 11:00 4,1 C 83 % 990,0 hPa 0,0 mm 6,3 km/h (2 Bft) O 0,08 h 0,0 mm 2,2 UV-I 131 W/m 1,4 C 14,8 km/h (3 Bft)
27.11.2021 12:00 5,4 C 75 % 990,3 hPa 0,0 mm 5,1 km/h (1 Bft) O 0,83 h 0,1 mm 2,8 UV-I 286 W/m 1,4 C 13,5 km/h (3 Bft)
27.11.2021 13:00 6,5 C 69 % 990,5 hPa 0,0 mm 3,9 km/h (1 Bft) O 0,67 h 0,1 mm 2,8 UV-I 217 W/m 1,1 C 9,8 km/h (2 Bft)
27.11.2021 14:00 6,5 C 68 % 990,8 hPa 0,0 mm 3,2 km/h (1 Bft) O 0,33 h 0,1 mm 1,5 UV-I 99 W/m 1,0 C 10,6 km/h (2 Bft)
27.11.2021 15:00 5,4 C 71 % 991,2 hPa 0,0 mm 5,8 km/h (2 Bft) O 0,50 h 0,1 mm 1,6 UV-I 69 W/m 0,6 C 15,0 km/h (3 Bft)
27.11.2021 16:00 4,4 C 73 % 991,8 hPa 0,0 mm 3,8 km/h (1 Bft) O 0,33 h 0,0 mm 0,0 UV-I 14 W/m 0,0 C 11,3 km/h (2 Bft)
27.11.2021 17:00 3,3 C 79 % 992,4 hPa 0,0 mm 2,4 km/h (1 Bft) O 0,00 h 0,0 mm 0,0 UV-I 0 W/m 0,0 C 6,1 km/h (2 Bft)
27.11.2021 18:00 2,3 C 82 % 992,9 hPa 0,0 mm 0,6 km/h (0 Bft) S 0,00 h 0,0 mm 0,0 UV-I 0 W/m -0,4 C 2,4 km/h (1 Bft)
27.11.2021 19:00 1,7 C 85 % 993,3 hPa 0,0 mm 1,7 km/h (1 Bft) S 0,00 h 0,0 mm 0,0 UV-I 0 W/m -0,5 C 6,5 km/h (2 Bft)
27.11.2021 20:00 1,8 C 86 % 993,6 hPa 0,0 mm 0,5 km/h (0 Bft) N 0,00 h 0,0 mm 0,0 UV-I 0 W/m -0,3 C 3,3 km/h (1 Bft)
27.11.2021 21:00 2,1 C 86 % 993,7 hPa 0,0 mm 1,5 km/h (1 Bft) S 0,00 h 0,0 mm 0,0 UV-I 0 W/m -0,1 C 5,5 km/h (1 Bft)
27.11.2021 22:00 2,2 C 85 % 994,0 hPa 0,0 mm 2,0 km/h (1 Bft) S 0,00 h 0,0 mm 0,0 UV-I 0 W/m -0,0 C 8,5 km/h (2 Bft)
27.11.2021 23:00 2,1 C 86 % 994,2 hPa 0,0 mm 2,9 km/h (1 Bft) S 0,00 h 0,0 mm 0,0 UV-I 0 W/m -0,0 C 9,6 km/h (2 Bft)
28.11.2021 00:00 2,3 C 86 % 994,3 hPa 0,0 mm 1,8 km/h (1 Bft) S 0,00 h 0,0 mm 0,0 UV-I 0 W/m 0,2 C 6,9 km/h (2 Bft)
28.11.2021 01:00 2,3 C 87 % 994,3 hPa 0,0 mm 1,0 km/h (0 Bft) S 0,00 h 0,0 mm 0,0 UV-I 0 W/m 0,3 C 4,1 km/h (1 Bft)
28.11.2021 02:00 2,2 C 87 % 994,6 hPa 0,0 mm 0,8 km/h (0 Bft) S-SO 0,00 h 0,0 mm 0,0 UV-I 0 W/m 0,3 C 4,1 km/h (1 Bft)
28.11.2021 03:00 2,2 C 87 % 994,6 hPa 0,0 mm 0,0 km/h (0 Bft) N 0,00 h 0,0 mm 0,0 UV-I 0 W/m 0,2 C 0,2 km/h (0 Bft)
28.11.2021 04:00 1,8 C 88 % 994,7 hPa 0,0 mm 0,0 km/h (0 Bft) N 0,00 h 0,0 mm 0,0 UV-I 0 W/m 0,1 C 0,0 km/h (0 Bft)
28.11.2021 05:00 1,8 C 89 % 995,0 hPa 0,0 mm 0,0 km/h (0 Bft) N 0,00 h 0,0 mm 0,0 UV-I 0 W/m 0,2 C 0,4 km/h (0 Bft)
28.11.2021 06:00 1,9 C 89 % 995,5 hPa 0,0 mm 0,0 km/h (0 Bft) N 0,00 h 0,0 mm 0,0 UV-I 0 W/m 0,3 C 0,0 km/h (0 Bft)
28.11.2021 07:00 2,1 C 89 % 996,0 hPa 0,0 mm 0,0 km/h (0 Bft) N 0,00 h 0,0 mm 0,0 UV-I 0 W/m 0,5 C 0,0 km/h (0 Bft)
28.11.2021 08:00 2,2 C 89 % 996,4 hPa 0,0 mm 0,0 km/h (0 Bft) N 0,00 h 0,0 mm 0,0 UV-I 6 W/m 0,7 C 0,0 km/h (0 Bft)
28.11.2021 09:00 2,4 C 90 % 996,7 hPa 0,0 mm 0,0 km/h (0 Bft) N 0,00 h 0,0 mm 0,0 UV-I 19 W/m 0,9 C 0,0 km/h (0 Bft)
28.11.2021 10:00 2,7 C 90 % 997,1 hPa 0,0 mm 0,0 km/h (0 Bft) N 0,00 h 0,0 mm 0,0 UV-I 34 W/m 1,2 C 0,0 km/h (0 Bft)
28.11.2021 11:00 3,2 C 90 % 997,2 hPa 0,0 mm 0,1 km/h (0 Bft) N 0,00 h 0,0 mm 1,6 UV-I 93 W/m 1,7 C 1,8 km/h (1 Bft)
28.11.2021 12:00 4,1 C 88 % 997,3 hPa 0,0 mm 0,2 km/h (0 Bft) O 0,33 h 0,0 mm 2,1 UV-I 172 W/m 2,2 C 1,3 km/h (1 Bft)
28.11.2021 13:00 4,3 C 86 % 997,4 hPa 0,0 mm 0,1 km/h (0 Bft) O 0,08 h 0,1 mm 2,0 UV-I 118 W/m 2,2 C 0,6 km/h (0 Bft)
28.11.2021 14:00 4,6 C 84 % 997,7 hPa 0,0 mm 1,3 km/h (1 Bft) O 0,17 h 0,1 mm 1,8 UV-I 72 W/m 2,2 C 6,5 km/h (2 Bft)
28.11.2021 15:00 4,3 C 84 % 997,9 hPa 0,0 mm 0,0 km/h (0 Bft) N 0,00 h 0,0 mm 0,9 UV-I 38 W/m 1,9 C 0,9 km/h (0 Bft)
28.11.2021 16:00 3,6 C 85 % 998,2 hPa 0,0 mm 0,0 km/h (0 Bft) N 0,17 h 0,0 mm 0,0 UV-I 14 W/m 1,4 C 0,2 km/h (0 Bft)
28.11.2021 17:00 3,4 C 87 % 998,7 hPa 0,0 mm 0,1 km/h (0 Bft) N 0,00 h 0,0 mm 0,0 UV-I 0 W/m 1,5 C 1,1 km/h (1 Bft)
28.11.2021 18:00 3,5 C 88 % 999,2 hPa 0,0 mm 0,2 km/h (0 Bft) N 0,00 h 0,0 mm 0,0 UV-I 0 W/m 1,8 C 2,4 km/h (1 Bft)
28.11.2021 19:00 3,2 C 89 % 999,8 hPa 0,0 mm 0,0 km/h (0 Bft) N 0,00 h 0,0 mm 0,0 UV-I 0 W/m 1,6 C 0,2 km/h (0 Bft)
28.11.2021 20:00 3,1 C 89 % 1000,5 hPa 0,0 mm 0,0 km/h (0 Bft) N 0,00 h 0,0 mm 0,0 UV-I 0 W/m 1,4 C 0,2 km/h (0 Bft)
28.11.2021 21:00 2,9 C 89 % 1001,1 hPa 0,0 mm 0,0 km/h (0 Bft) N 0,00 h 0,0 mm 0,0 UV-I 0 W/m 1,2 C 0,9 km/h (0 Bft)
28.11.2021 22:00 2,2 C 90 % 1001,6 hPa 0,0 mm 0,0 km/h (0 Bft) NW 0,00 h 0,0 mm 0,0 UV-I 0 W/m 0,7 C 0,4 km/h (0 Bft)
28.11.2021 23:00 1,3 C 90 % 1002,0 hPa 0,0 mm 0,1 km/h (0 Bft) N 0,00 h 0,0 mm 0,0 UV-I 0 W/m -0,2 C 0,9 km/h (0 Bft)
Min-Datum _ 23.11.21 27.11.21 27.11.21 - 22.11.21 - - - - - 23.11.21 22.11.21
_ Min-Zeit 06:05 14:10 01:25 - 00:00 - - - - - 05:50 00:00
Minimum _ -0,7 C 66 % 984,2 hPa - 0,0 km/h (0 Bft) - - - - - -2,0 C 0,0 km/h (0 Bft)
Max-Datum _ 24.11.21 22.11.21 23.11.21 26.11.21 26.11.21 - 22.11.21 22.11.21 24.11.21 22.11.21 24.11.21 26.11.21
_ Max-Zeit 13:25 02:20 10:20 08:45 08:30 - 08:25 13:00 12:45 12:15 12:05 16:55
Maximum _ 7,9 C 93 % 1031,4 hPa 2,0 mm 16,0 km/h
W (3 Bft)
- 0,08 h 0,2 mm 3,3 UV-I 455 W/m 4,9 C 35,5 km/h
S-SW (5 Bft)
Durchschnitt _ 3,8 C 86 % 1010,3 hPa #4,1 mm 2,2 km/h (1 Bft) O #14:24 h #2,185 mm 1,9 UV-I 93 W/m 1,7 C 5,8 km/h (2 Bft)



© 1998 - 2021 www.pulheimwetter.de